Hourly Weather Allah-Yun

Today, 6 March, Saturday

Time Temperature Precipitation Wind Pressure Humidity
00:00 -42°C° 0 mm 1 mps 708 mmHg 97%
01:00 -42°C° 0 mm 1 mps 708 mmHg 97%
02:00 -43°C° 0 mm 1 mps 708 mmHg 97%
03:00 -42°C° 0 mm 1 mps 708 mmHg 96%
04:00 -42°C° 0 mm 1 mps 708 mmHg 97%
05:00 -42°C° 0 mm 1 mps 708 mmHg 98%
06:00 -42°C° 0 mm 1 mps 708 mmHg 98%
07:00 -41°C° 0 mm 1 mps 708 mmHg 98%
08:00 -39°C° 0 mm 1 mps 708 mmHg 98%
09:00 -37°C° 0 mm 1 mps 708 mmHg 97%
10:00 -35°C° 0 mm 1 mps 708 mmHg 95%
11:00 -34°C° 0 mm 1 mps 708 mmHg 94%
12:00 -33°C° 0 mm 1 mps 707 mmHg 93%
13:00 -32°C° 0 mm 1 mps 707 mmHg 93%
14:00 -32°C° 0 mm 1 mps 707 mmHg 93%
15:00 -30°C° 0 mm 1 mps 707 mmHg 93%
16:00 -32°C° 0 mm 1 mps 707 mmHg 95%
17:00 -34°C° 0 mm 1 mps 707 mmHg 97%
18:00 -36°C° 0 mm 1 mps 706 mmHg 99%
19:00 -37°C° 0 mm 1 mps 706 mmHg 99%
20:00 -38°C° 0 mm 1 mps 707 mmHg 99%
21:00 -37°C° 0 mm 0 mps 707 mmHg 99%
22:00 -39°C° 0 mm 1 mps 706 mmHg 99%
23:00 -39°C° 0 mm 1 mps 706 mmHg 99%

Tomorrow, 7 March, Sunday

Time Temperature Precipitation Wind Pressure Humidity
00:00 -39°C° 0 mm 1 mps 706 mmHg 99%
01:00 -39°C° 0 mm 1 mps 706 mmHg 99%
02:00 -38°C° 0 mm 0 mps 705 mmHg 99%
03:00 -39°C° 0 mm 0 mps 705 mmHg 99%
04:00 -38°C° 0 mm 0 mps 705 mmHg 99%
05:00 -38°C° 0 mm 0 mps 705 mmHg 99%
06:00 -39°C° 0 mm 1 mps 705 mmHg 99%
07:00 -37°C° 0 mm 1 mps 705 mmHg 98%
08:00 -35°C° 0 mm 0 mps 706 mmHg 97%
09:00 -33°C° 0 mm 0 mps 706 mmHg 96%
10:00 -32°C° 0 mm 1 mps 705 mmHg 93%
11:00 -31°C° 0 mm 1 mps 705 mmHg 91%
12:00 -29°C° 0 mm 1 mps 705 mmHg 89%
13:00 -28°C° 0 mm 1 mps 704 mmHg 89%
14:00 -27°C° 0 mm 1 mps 704 mmHg 90%
15:00 -27°C° 0 mm 1 mps 704 mmHg 91%
16:00 -29°C° 0 mm 1 mps 704 mmHg 93%
17:00 -31°C° 0 mm 1 mps 704 mmHg 96%
18:00 -32°C° 0 mm 0 mps 704 mmHg 99%
19:00 -32°C° 0 mm 0 mps 704 mmHg 99%
20:00 -33°C° 0 mm 0 mps 704 mmHg 99%
21:00 -33°C° 0 mm 0 mps 704 mmHg 99%
22:00 -34°C° 0 mm 0 mps 703 mmHg 99%
23:00 -34°C° 0 mm 0 mps 703 mmHg 99%

Day after tomorrow, 8 March, Monday

Time Temperature Precipitation Wind Pressure Humidity
00:00 -34°C° 0 mm 0 mps 703 mmHg 99%
01:00 -34°C° 0 mm 0 mps 702 mmHg 99%
02:00 -34°C° 0 mm 0 mps 702 mmHg 98%
03:00 -35°C° 0 mm 0 mps 702 mmHg 98%
04:00 -35°C° 0 mm 0 mps 701 mmHg 98%
05:00 -34°C° 0 mm 0 mps 701 mmHg 97%
06:00 -34°C° 0 mm 0 mps 701 mmHg 97%
07:00 -32°C° 0 mm 0 mps 701 mmHg 93%
08:00 -30°C° 0 mm 0 mps 701 mmHg 90%
09:00 -28°C° 0 mm 1 mps 701 mmHg 87%
10:00 -25°C° 0 mm 1 mps 700 mmHg 85%
11:00 -23°C° 0 mm 1 mps 700 mmHg 83%
12:00 -22°C° 0 mm 1 mps 699 mmHg 81%
13:00 -21°C° 0 mm 1 mps 699 mmHg 82%
14:00 -20°C° 0 mm 1 mps 698 mmHg 83%
15:00 -19°C° 0 mm 1 mps 698 mmHg 84%
16:00 -21°C° 0 mm 1 mps 698 mmHg 87%
17:00 -23°C° 0 mm 0 mps 698 mmHg 90%
18:00 -25°C° 0 mm 0 mps 698 mmHg 94%
19:00 -25°C° 0 mm 0 mps 698 mmHg 93%
20:00 -25°C° 0 mm 0 mps 698 mmHg 92%
21:00 -25°C° 0 mm 0 mps 698 mmHg 91%
22:00 -25°C° 0 mm 0 mps 698 mmHg 91%
23:00 -25°C° 0 mm 0 mps 698 mmHg 92%

9 March, Tuesday

Time Temperature Precipitation Wind Pressure Humidity
00:00 -25°C° 0 mm 0 mps 698 mmHg 92%
01:00 -27°C° 0 mm 1 mps 698 mmHg 93%
02:00 -27°C° 0 mm 1 mps 698 mmHg 94%
03:00 -28°C° 0 mm 1 mps 698 mmHg 95%
04:00 -28°C° 0 mm 1 mps 698 mmHg 96%
05:00 -28°C° 0 mm 1 mps 698 mmHg 96%
06:00 -28°C° 0 mm 1 mps 698 mmHg 97%
07:00 -27°C° 0 mm 1 mps 699 mmHg 96%
08:00 -24°C° 0 mm 1 mps 699 mmHg 95%
09:00 -22°C° 0 mm 1 mps 700 mmHg 94%
10:00 -20°C° 0 mm 1 mps 700 mmHg 92%
11:00 -18°C° 0 mm 1 mps 700 mmHg 90%
12:00 -17°C° 0 mm 1 mps 701 mmHg 88%
13:00 -16°C° 0 mm 1 mps 701 mmHg 88%
14:00 -16°C° 0 mm 1 mps 701 mmHg 88%
15:00 -15°C° 0 mm 1 mps 701 mmHg 88%
16:00 -17°C° 0 mm 1 mps 702 mmHg 92%
17:00 -19°C° 0 mm 0 mps 702 mmHg 96%
18:00 -21°C° 0 mm 0 mps 702 mmHg 99%
19:00 -21°C° 0 mm 0 mps 703 mmHg 99%
20:00 -21°C° 0 mm 0 mps 703 mmHg 99%
21:00 -21°C° 0 mm 0 mps 703 mmHg 99%
22:00 -22°C° 0 mm 0 mps 703 mmHg 99%
23:00 -22°C° 0 mm 0 mps 703 mmHg 99%

10 March, Wednesday

Time Temperature Precipitation Wind Pressure Humidity
00:00 -23°C° 0 mm 0 mps 703 mmHg 99%
01:00 -23°C° 0 mm 0 mps 703 mmHg 99%
02:00 -23°C° 0 mm 0 mps 703 mmHg 99%
03:00 -23°C° 0 mm 0 mps 704 mmHg 99%
04:00 -24°C° 0 mm 0 mps 703 mmHg 99%
05:00 -25°C° 0 mm 0 mps 703 mmHg 99%
06:00 -25°C° 0 mm 0 mps 703 mmHg 99%
07:00 -24°C° 0 mm 0 mps 703 mmHg 99%
08:00 -22°C° 0 mm 0 mps 703 mmHg 98%
09:00 -20°C° 0 mm 0 mps 703 mmHg 97%
10:00 -19°C° 0 mm 0 mps 703 mmHg 93%
11:00 -18°C° 0 mm 0 mps 703 mmHg 90%
12:00 -16°C° 0 mm 0 mps 703 mmHg 86%
13:00 -16°C° 0 mm 0 mps 703 mmHg 86%
14:00 -15°C° 0 mm 0 mps 702 mmHg 85%
15:00 -14°C° 0 mm 0 mps 702 mmHg 85%
16:00 -16°C° 0 mm 0 mps 702 mmHg 88%
17:00 -17°C° 0 mm 0 mps 702 mmHg 92%
18:00 -19°C° 0 mm 0 mps 702 mmHg 95%
19:00 -19°C° 0 mm 1 mps 703 mmHg 96%
20:00 -18°C° 0 mm 1 mps 703 mmHg 96%
21:00 -18°C° 0 mm 1 mps 703 mmHg 96%
22:00 -18°C° 0.1 mm 1 mps 703 mmHg 97%
23:00 -18°C° 0.1 mm 1 mps 703 mmHg 97%

11 March, Thursday

Time Temperature Precipitation Wind Pressure Humidity
00:00 -18°C° 0.1 mm 1 mps 703 mmHg 98%
01:00 -18°C° 0.2 mm 1 mps 703 mmHg 98%
02:00 -18°C° 0.2 mm 1 mps 704 mmHg 98%
03:00 -17°C° 0.2 mm 1 mps 704 mmHg 98%
04:00 -18°C° 0.1 mm 1 mps 704 mmHg 98%
05:00 -18°C° 0.1 mm 1 mps 704 mmHg 98%
06:00 -18°C° 0.1 mm 1 mps 705 mmHg 99%
07:00 -17°C° 0.1 mm 1 mps 705 mmHg 97%
08:00 -19°C° 0.1 mm 2 mps 705 mmHg 95%
09:00 -18°C° 0.1 mm 2 mps 705 mmHg 94%
10:00 -17°C° 0 mm 2 mps 705 mmHg 89%
11:00 -17°C° 0 mm 2 mps 706 mmHg 85%
12:00 -16°C° 0 mm 2 mps 706 mmHg 81%
13:00 -16°C° 0 mm 2 mps 705 mmHg 80%
14:00 -16°C° 0 mm 2 mps 705 mmHg 80%
15:00 -16°C° 0 mm 2 mps 705 mmHg 79%
16:00 -16°C° 0 mm 1 mps 705 mmHg 85%
17:00 -17°C° 0 mm 1 mps 705 mmHg 90%
18:00 -19°C° 0 mm 1 mps 705 mmHg 96%
19:00 -19°C° 0 mm 1 mps 705 mmHg 96%
20:00 -19°C° 0 mm 1 mps 706 mmHg 97%
21:00 -19°C° 0 mm 0 mps 706 mmHg 98%
22:00 -20°C° 0 mm 0 mps 706 mmHg 98%
23:00 -22°C° 0 mm 0 mps 705 mmHg 99%
Show more